Year,Month,Day,Hour,Minute,Value (Times are PST for temperature in C)
2009,05,29,00,00,13.70
2009,05,29,00,01,13.70
2009,05,29,00,02,13.70
2009,05,29,00,03,13.70
2009,05,29,00,04,13.70
2009,05,29,00,05,13.70
2009,05,29,00,06,13.70
2009,05,29,00,07,13.70
2009,05,29,00,08,13.70
2009,05,29,00,09,13.70
2009,05,29,00,10,13.70
2009,05,29,00,11,13.70
2009,05,29,00,12,13.70
2009,05,29,00,13,13.70
2009,05,29,00,14,13.70
2009,05,29,00,15,13.70
2009,05,29,00,16,13.70
2009,05,29,00,17,13.70
2009,05,29,00,18,13.70
2009,05,29,00,19,13.70
2009,05,29,00,20,13.60
2009,05,29,00,21,13.60
2009,05,29,00,22,13.60
2009,05,29,00,23,13.60
2009,05,29,00,24,13.60
2009,05,29,00,25,13.60
2009,05,29,00,26,13.50
2009,05,29,00,27,13.50
2009,05,29,00,28,13.50
2009,05,29,00,29,13.50
2009,05,29,00,30,13.40
2009,05,29,00,31,13.40
2009,05,29,00,32,13.40
2009,05,29,00,33,13.30
2009,05,29,00,34,13.30
2009,05,29,00,35,13.30
2009,05,29,00,36,13.30
2009,05,29,00,37,13.30
2009,05,29,00,38,13.30
2009,05,29,00,39,13.30
2009,05,29,00,40,13.30
2009,05,29,00,41,13.40
2009,05,29,00,42,13.40
2009,05,29,00,43,13.50
2009,05,29,00,44,13.50
2009,05,29,00,45,13.50
2009,05,29,00,46,13.60
2009,05,29,00,47,13.60
2009,05,29,00,48,13.60
2009,05,29,00,49,13.60
2009,05,29,00,50,13.60
2009,05,29,00,51,13.70
2009,05,29,00,52,13.70
2009,05,29,00,53,13.70
2009,05,29,00,54,13.70
2009,05,29,00,55,13.70
2009,05,29,00,56,13.70
2009,05,29,00,57,13.70
2009,05,29,00,58,13.60
2009,05,29,00,59,13.60
2009,05,29,01,00,13.60
2009,05,29,01,01,13.60
2009,05,29,01,02,13.60
2009,05,29,01,03,13.60
2009,05,29,01,04,13.60
2009,05,29,01,05,13.60
2009,05,29,01,06,13.60
2009,05,29,01,07,13.60
2009,05,29,01,08,13.60
2009,05,29,01,09,13.60
2009,05,29,01,10,13.60
2009,05,29,01,11,13.60
2009,05,29,01,12,13.60
2009,05,29,01,13,13.60
2009,05,29,01,14,13.60
2009,05,29,01,15,13.60
2009,05,29,01,16,13.60
2009,05,29,01,17,13.60
2009,05,29,01,18,13.50
2009,05,29,01,19,13.50
2009,05,29,01,20,13.50
2009,05,29,01,21,13.50
2009,05,29,01,22,13.40
2009,05,29,01,23,13.40
2009,05,29,01,24,13.40
2009,05,29,01,25,13.30
2009,05,29,01,26,13.30
2009,05,29,01,27,13.30
2009,05,29,01,28,13.30
2009,05,29,01,29,13.30
2009,05,29,01,30,13.20
2009,05,29,01,31,13.20
2009,05,29,01,32,13.20
2009,05,29,01,33,13.20
2009,05,29,01,34,13.10
2009,05,29,01,35,13.10
2009,05,29,01,36,13.10
2009,05,29,01,37,13.00
2009,05,29,01,38,13.00
2009,05,29,01,39,13.00
2009,05,29,01,40,13.00
2009,05,29,01,41,12.90
2009,05,29,01,42,12.90
2009,05,29,01,43,12.90
2009,05,29,01,44,12.80
2009,05,29,01,45,12.80
2009,05,29,01,46,12.80
2009,05,29,01,47,12.80
2009,05,29,01,48,12.80
2009,05,29,01,49,12.80
2009,05,29,01,50,12.90
2009,05,29,01,51,12.90
2009,05,29,01,52,12.90
2009,05,29,01,53,12.90
2009,05,29,01,54,12.90
2009,05,29,01,55,12.90
2009,05,29,01,56,12.90
2009,05,29,01,57,12.90
2009,05,29,01,58,12.90
2009,05,29,01,59,12.80
2009,05,29,02,00,12.80
2009,05,29,02,01,12.80
2009,05,29,02,02,12.80
2009,05,29,02,03,12.80
2009,05,29,02,04,12.70
2009,05,29,02,05,12.70
2009,05,29,02,06,12.60
2009,05,29,02,07,12.60
2009,05,29,02,08,12.50
2009,05,29,02,09,12.50
2009,05,29,02,10,12.50
2009,05,29,02,11,12.50
2009,05,29,02,12,12.40
2009,05,29,02,13,12.40
2009,05,29,02,14,12.40
2009,05,29,02,15,12.30
2009,05,29,02,16,12.30
2009,05,29,02,17,12.30
2009,05,29,02,18,12.30
2009,05,29,02,19,12.30
2009,05,29,02,20,12.30
2009,05,29,02,21,12.30
2009,05,29,02,22,12.30
2009,05,29,02,23,12.30
2009,05,29,02,24,12.20
2009,05,29,02,25,12.20
2009,05,29,02,26,12.10
2009,05,29,02,27,12.10
2009,05,29,02,28,12.10
2009,05,29,02,29,12.00
2009,05,29,02,30,12.00
2009,05,29,02,31,11.90
2009,05,29,02,32,11.90
2009,05,29,02,33,11.90
2009,05,29,02,34,11.80
2009,05,29,02,35,11.80
2009,05,29,02,36,11.80
2009,05,29,02,37,11.80
2009,05,29,02,38,11.80
2009,05,29,02,39,11.80
2009,05,29,02,40,11.80
2009,05,29,02,41,11.70
2009,05,29,02,42,11.70
2009,05,29,02,43,11.70
2009,05,29,02,44,11.70
2009,05,29,02,45,11.70
2009,05,29,02,46,11.80
2009,05,29,02,47,11.80
2009,05,29,02,48,11.80
2009,05,29,02,49,11.80
2009,05,29,02,50,11.80
2009,05,29,02,51,11.80
2009,05,29,02,52,11.80
2009,05,29,02,53,11.80
2009,05,29,02,54,11.70
2009,05,29,02,55,11.70
2009,05,29,02,56,11.70
2009,05,29,02,57,11.70
2009,05,29,02,58,11.70
2009,05,29,02,59,11.70
2009,05,29,03,00,11.70
2009,05,29,03,01,11.70
2009,05,29,03,02,11.70
2009,05,29,03,03,11.70
2009,05,29,03,04,11.70
2009,05,29,03,05,11.70
2009,05,29,03,06,11.70
2009,05,29,03,07,11.70
2009,05,29,03,08,11.70
2009,05,29,03,09,11.70
2009,05,29,03,10,11.70
2009,05,29,03,11,11.70
2009,05,29,03,12,11.70
2009,05,29,03,13,11.70
2009,05,29,03,14,11.70
2009,05,29,03,15,11.70
2009,05,29,03,16,11.60
2009,05,29,03,17,11.60
2009,05,29,03,18,11.60
2009,05,29,03,19,11.60
2009,05,29,03,20,11.60
2009,05,29,03,21,11.60
2009,05,29,03,22,11.60
2009,05,29,03,23,11.60
2009,05,29,03,24,11.60
2009,05,29,03,25,11.60
2009,05,29,03,26,11.60
2009,05,29,03,27,11.50
2009,05,29,03,28,11.40
2009,05,29,03,29,11.40
2009,05,29,03,30,11.40
2009,05,29,03,31,11.40
2009,05,29,03,32,11.40
2009,05,29,03,33,11.40
2009,05,29,03,34,11.40
2009,05,29,03,35,11.40
2009,05,29,03,36,11.30
2009,05,29,03,37,11.30
2009,05,29,03,38,11.30
2009,05,29,03,39,11.20
2009,05,29,03,40,11.20
2009,05,29,03,41,11.20
2009,05,29,03,42,11.10
2009,05,29,03,43,11.10
2009,05,29,03,44,11.10
2009,05,29,03,45,11.10
2009,05,29,03,46,11.10
2009,05,29,03,47,11.10
2009,05,29,03,48,11.10
2009,05,29,03,49,11.10
2009,05,29,03,50,11.10
2009,05,29,03,51,11.10
2009,05,29,03,52,11.10
2009,05,29,03,53,11.10
2009,05,29,03,54,11.00
2009,05,29,03,55,10.90
2009,05,29,03,56,10.90
2009,05,29,03,57,10.90
2009,05,29,03,58,10.90
2009,05,29,03,59,10.90
2009,05,29,04,00,10.90
2009,05,29,04,01,10.90
2009,05,29,04,02,10.90
2009,05,29,04,03,10.90
2009,05,29,04,04,10.90
2009,05,29,04,05,10.90
2009,05,29,04,06,11.10
2009,05,29,04,07,11.10
2009,05,29,04,08,11.10
2009,05,29,04,09,11.10
2009,05,29,04,10,11.10
2009,05,29,04,11,11.10
2009,05,29,04,12,11.10
2009,05,29,04,13,11.10
2009,05,29,04,14,10.90
2009,05,29,04,15,10.90
2009,05,29,04,16,10.90
2009,05,29,04,17,10.90
2009,05,29,04,18,10.90
2009,05,29,04,19,10.90
2009,05,29,04,20,10.90
2009,05,29,04,21,10.90
2009,05,29,04,22,10.90
2009,05,29,04,23,10.90
2009,05,29,04,24,10.90
2009,05,29,04,25,10.90
2009,05,29,04,26,10.90
2009,05,29,04,27,10.90
2009,05,29,04,28,10.90
2009,05,29,04,29,10.90
2009,05,29,04,30,10.90
2009,05,29,04,31,10.90
2009,05,29,04,32,10.90
2009,05,29,04,33,10.90
2009,05,29,04,34,10.90
2009,05,29,04,35,10.90
2009,05,29,04,36,10.90
2009,05,29,04,37,10.90
2009,05,29,04,38,10.90
2009,05,29,04,39,10.90
2009,05,29,04,40,10.90
2009,05,29,04,41,10.90
2009,05,29,04,42,10.90
2009,05,29,04,43,10.90
2009,05,29,04,44,10.90
2009,05,29,04,45,10.90
2009,05,29,04,46,10.90
2009,05,29,04,47,10.90
2009,05,29,04,48,10.90
2009,05,29,04,49,10.90
2009,05,29,04,50,10.90
2009,05,29,04,51,10.90
2009,05,29,04,52,10.90
2009,05,29,04,53,10.90
2009,05,29,04,54,10.90
2009,05,29,04,55,10.90
2009,05,29,04,56,10.90
2009,05,29,04,57,10.90
2009,05,29,04,58,10.90
2009,05,29,04,59,10.90
2009,05,29,05,00,10.90
2009,05,29,05,01,10.90
2009,05,29,05,02,10.90
2009,05,29,05,03,10.90
2009,05,29,05,04,10.80
2009,05,29,05,05,10.80
2009,05,29,05,06,10.80
2009,05,29,05,07,10.80
2009,05,29,05,08,10.90
2009,05,29,05,09,10.90
2009,05,29,05,10,10.90
2009,05,29,05,11,10.90
2009,05,29,05,12,10.90
2009,05,29,05,13,10.90
2009,05,29,05,14,10.90
2009,05,29,05,15,10.90
2009,05,29,05,16,10.90
2009,05,29,05,17,10.90
2009,05,29,05,18,10.80
2009,05,29,05,19,10.80
2009,05,29,05,20,10.80
2009,05,29,05,21,10.80
2009,05,29,05,22,10.70
2009,05,29,05,23,10.70
2009,05,29,05,24,10.70
2009,05,29,05,25,10.70
2009,05,29,05,26,10.60
2009,05,29,05,27,10.60
2009,05,29,05,28,10.60
2009,05,29,05,29,10.60
2009,05,29,05,30,10.60
2009,05,29,05,31,10.60
2009,05,29,05,32,10.60
2009,05,29,05,33,10.50
2009,05,29,05,34,10.50
2009,05,29,05,35,10.40
2009,05,29,05,36,10.40
2009,05,29,05,37,10.40
2009,05,29,05,38,10.40
2009,05,29,05,39,10.40
2009,05,29,05,40,10.40
2009,05,29,05,41,10.40
2009,05,29,05,42,10.50
2009,05,29,05,43,10.60
2009,05,29,05,44,10.60
2009,05,29,05,45,10.60
2009,05,29,05,46,10.60
2009,05,29,05,47,10.60
2009,05,29,05,48,10.60
2009,05,29,05,49,10.60
2009,05,29,05,50,10.60
2009,05,29,05,51,10.70
2009,05,29,05,52,10.70
2009,05,29,05,53,10.70
2009,05,29,05,54,10.80
2009,05,29,05,55,10.80
2009,05,29,05,56,10.80
2009,05,29,05,57,10.80
2009,05,29,05,58,10.80
2009,05,29,05,59,10.90
2009,05,29,06,00,10.90
2009,05,29,06,01,10.90
2009,05,29,06,02,10.90
2009,05,29,06,03,10.90
2009,05,29,06,04,10.90
2009,05,29,06,05,10.90
2009,05,29,06,06,11.10
2009,05,29,06,07,11.10
2009,05,29,06,08,11.10
2009,05,29,06,09,11.10
2009,05,29,06,10,11.10
2009,05,29,06,11,11.10
2009,05,29,06,12,11.10
2009,05,29,06,13,11.10
2009,05,29,06,14,11.10
2009,05,29,06,15,11.10
2009,05,29,06,16,11.10
2009,05,29,06,17,11.10
2009,05,29,06,18,11.20
2009,05,29,06,19,11.20
2009,05,29,06,20,11.30
2009,05,29,06,21,11.30
2009,05,29,06,22,11.40
2009,05,29,06,23,11.40
2009,05,29,06,24,11.40
2009,05,29,06,25,11.40
2009,05,29,06,26,11.50
2009,05,29,06,27,11.60
2009,05,29,06,28,11.60
2009,05,29,06,29,11.60
2009,05,29,06,30,11.60
2009,05,29,06,31,11.60
2009,05,29,06,32,11.60
2009,05,29,06,33,11.70
2009,05,29,06,34,11.70
2009,05,29,06,35,11.80
2009,05,29,06,36,11.80
2009,05,29,06,37,11.80
2009,05,29,06,38,11.80
2009,05,29,06,39,11.90
2009,05,29,06,40,11.90
2009,05,29,06,41,12.00
2009,05,29,06,42,12.00
2009,05,29,06,43,12.00
2009,05,29,06,44,12.00
2009,05,29,06,45,12.10
2009,05,29,06,46,12.10
2009,05,29,06,47,12.10
2009,05,29,06,48,12.20
2009,05,29,06,49,12.20
2009,05,29,06,50,12.20
2009,05,29,06,51,12.30
2009,05,29,06,52,12.30
2009,05,29,06,53,12.30
2009,05,29,06,54,12.40
2009,05,29,06,55,12.40
2009,05,29,06,56,12.50
2009,05,29,06,57,12.60
2009,05,29,06,58,12.70
2009,05,29,06,59,12.80
2009,05,29,07,00,13.00
2009,05,29,07,01,13.10
2009,05,29,07,02,13.20
2009,05,29,07,03,13.30
2009,05,29,07,04,13.30
2009,05,29,07,05,13.40
2009,05,29,07,06,13.50
2009,05,29,07,07,13.50
2009,05,29,07,08,13.60
2009,05,29,07,09,13.60
2009,05,29,07,10,13.70
2009,05,29,07,11,13.70
2009,05,29,07,12,13.70
2009,05,29,07,13,13.70
2009,05,29,07,14,13.70
2009,05,29,07,15,13.60
2009,05,29,07,16,13.50
2009,05,29,07,17,13.50
2009,05,29,07,18,13.50
2009,05,29,07,19,13.40
2009,05,29,07,20,13.40
2009,05,29,07,21,13.50
2009,05,29,07,22,13.60
2009,05,29,07,23,13.60
2009,05,29,07,24,13.70
2009,05,29,07,25,13.80
2009,05,29,07,26,13.90
2009,05,29,07,27,14.00
2009,05,29,07,28,14.00
2009,05,29,07,29,14.10
2009,05,29,07,30,14.10
2009,05,29,07,31,14.20
2009,05,29,07,32,14.20
2009,05,29,07,33,14.30
2009,05,29,07,34,14.40
2009,05,29,07,35,14.40
2009,05,29,07,36,14.50
2009,05,29,07,37,14.60
2009,05,29,07,38,14.70
2009,05,29,07,39,14.80
2009,05,29,07,40,14.80
2009,05,29,07,41,14.80
2009,05,29,07,42,14.90
2009,05,29,07,43,14.90
2009,05,29,07,44,14.90
2009,05,29,07,45,14.90
2009,05,29,07,46,15.00
2009,05,29,07,47,15.00
2009,05,29,07,48,15.00
2009,05,29,07,49,15.10
2009,05,29,07,50,15.20
2009,05,29,07,51,15.30
2009,05,29,07,52,15.40
2009,05,29,07,53,15.50
2009,05,29,07,54,15.60
2009,05,29,07,55,15.80
2009,05,29,07,56,15.90
2009,05,29,07,57,16.00
2009,05,29,07,58,16.10
2009,05,29,07,59,16.20
2009,05,29,08,00,16.20
2009,05,29,08,01,16.40
2009,05,29,08,02,16.50
2009,05,29,08,03,16.70
2009,05,29,08,04,16.70
2009,05,29,08,05,16.70
2009,05,29,08,06,16.80
2009,05,29,08,07,16.90
2009,05,29,08,08,17.00
2009,05,29,08,09,17.00
2009,05,29,08,10,17.00
2009,05,29,08,11,17.00
2009,05,29,08,12,17.10
2009,05,29,08,13,17.10
2009,05,29,08,14,17.20
2009,05,29,08,15,17.30
2009,05,29,08,16,17.30
2009,05,29,08,17,17.30
2009,05,29,08,18,17.30
2009,05,29,08,19,17.40
2009,05,29,08,20,17.50
2009,05,29,08,21,17.50
2009,05,29,08,22,17.50
2009,05,29,08,23,17.60
2009,05,29,08,24,17.60
2009,05,29,08,25,17.60
2009,05,29,08,26,17.70
2009,05,29,08,27,17.70
2009,05,29,08,28,17.70
2009,05,29,08,29,17.80
2009,05,29,08,30,17.90
2009,05,29,08,31,17.90
2009,05,29,08,32,18.00
2009,05,29,08,33,18.10
2009,05,29,08,34,18.10
2009,05,29,08,35,18.10
2009,05,29,08,36,18.20
2009,05,29,08,37,18.20
2009,05,29,08,38,18.30
2009,05,29,08,39,18.30
2009,05,29,08,40,18.40
2009,05,29,08,41,18.50
2009,05,29,08,42,18.50
2009,05,29,08,43,18.60
2009,05,29,08,44,18.70
2009,05,29,08,45,18.80
2009,05,29,08,46,18.90
2009,05,29,08,47,18.90
2009,05,29,08,48,18.90
2009,05,29,08,49,19.00
2009,05,29,08,50,19.10
2009,05,29,08,51,19.10
2009,05,29,08,52,19.20
2009,05,29,08,53,19.30
2009,05,29,08,54,19.40
2009,05,29,08,55,19.40
2009,05,29,08,56,19.40
2009,05,29,08,57,19.40
2009,05,29,08,58,19.50
2009,05,29,08,59,19.50
2009,05,29,09,00,19.50
2009,05,29,09,01,19.60
2009,05,29,09,02,19.60
2009,05,29,09,03,19.60
2009,05,29,09,04,19.70
2009,05,29,09,05,19.80
2009,05,29,09,06,19.90
2009,05,29,09,07,19.90
2009,05,29,09,08,19.90
2009,05,29,09,09,19.90
2009,05,29,09,10,20.10
2009,05,29,09,11,20.10
2009,05,29,09,12,20.10
2009,05,29,09,13,20.10
2009,05,29,09,14,19.90
2009,05,29,09,15,19.90
2009,05,29,09,16,20.00
2009,05,29,09,17,20.10
2009,05,29,09,18,20.10
2009,05,29,09,19,20.10
2009,05,29,09,20,20.10
2009,05,29,09,21,20.10
2009,05,29,09,22,20.10
2009,05,29,09,23,20.10
2009,05,29,09,24,20.10
2009,05,29,09,25,20.00
2009,05,29,09,26,19.90
2009,05,29,09,27,19.90
2009,05,29,09,28,19.90
2009,05,29,09,29,19.90
2009,05,29,09,30,19.90
2009,05,29,09,31,19.90
2009,05,29,09,32,19.90
2009,05,29,09,33,19.90
2009,05,29,09,34,19.90
2009,05,29,09,35,19.90
2009,05,29,09,36,20.00
2009,05,29,09,37,20.10
2009,05,29,09,38,20.10
2009,05,29,09,39,20.00
2009,05,29,09,40,19.90
2009,05,29,09,41,20.10
2009,05,29,09,42,20.10
2009,05,29,09,43,20.30
2009,05,29,09,44,20.40
2009,05,29,09,45,20.50
2009,05,29,09,46,20.60
2009,05,29,09,47,20.70
2009,05,29,09,48,20.90
2009,05,29,09,49,21.00
2009,05,29,09,50,21.00
2009,05,29,09,51,21.20
2009,05,29,09,52,21.30
2009,05,29,09,53,21.40
2009,05,29,09,54,21.50
2009,05,29,09,55,21.60
2009,05,29,09,56,21.60
2009,05,29,09,57,21.70
2009,05,29,09,58,21.80
2009,05,29,09,59,21.80
2009,05,29,10,00,21.80
2009,05,29,10,01,21.80
2009,05,29,10,02,21.80
2009,05,29,10,03,21.90
2009,05,29,10,04,21.80
2009,05,29,10,05,21.90
2009,05,29,10,06,22.00
2009,05,29,10,07,22.00
2009,05,29,10,08,22.10
2009,05,29,10,09,22.20
2009,05,29,10,10,22.30
2009,05,29,10,11,22.30
2009,05,29,10,12,22.20
2009,05,29,10,13,22.10
2009,05,29,10,14,22.00
2009,05,29,10,15,21.70
2009,05,29,10,16,21.60
2009,05,29,10,17,21.40
2009,05,29,10,18,21.30
2009,05,29,10,19,21.10
2009,05,29,10,20,21.10
2009,05,29,10,21,21.10
2009,05,29,10,22,21.00
2009,05,29,10,23,20.90
2009,05,29,10,24,21.00
2009,05,29,10,25,21.00
2009,05,29,10,26,21.20
2009,05,29,10,27,21.30
2009,05,29,10,28,21.40
2009,05,29,10,29,21.60
2009,05,29,10,30,21.60
2009,05,29,10,31,21.60
2009,05,29,10,32,21.60
2009,05,29,10,33,21.60
2009,05,29,10,34,21.60
2009,05,29,10,35,21.60
2009,05,29,10,36,21.60
2009,05,29,10,37,21.60
2009,05,29,10,38,21.40
2009,05,29,10,39,21.30
2009,05,29,10,40,21.30
2009,05,29,10,41,21.30
2009,05,29,10,42,21.30
2009,05,29,10,43,21.40
2009,05,29,10,44,21.50
2009,05,29,10,45,21.60
2009,05,29,10,46,21.60
2009,05,29,10,47,21.60
2009,05,29,10,48,21.70
2009,05,29,10,49,21.70
2009,05,29,10,50,21.70
2009,05,29,10,51,21.60
2009,05,29,10,52,21.40
2009,05,29,10,53,21.30
2009,05,29,10,54,21.30
2009,05,29,10,55,21.10
2009,05,29,10,56,21.10
2009,05,29,10,57,21.00
2009,05,29,10,58,21.00
2009,05,29,10,59,20.90
2009,05,29,11,00,20.80
2009,05,29,11,01,20.70
2009,05,29,11,02,20.80
2009,05,29,11,03,21.00
2009,05,29,11,04,21.10
2009,05,29,11,05,21.10
2009,05,29,11,06,21.30
2009,05,29,11,07,21.40
2009,05,29,11,08,21.60
2009,05,29,11,09,21.60
2009,05,29,11,10,21.70
2009,05,29,11,11,21.80
2009,05,29,11,12,21.80
2009,05,29,11,13,21.70
2009,05,29,11,14,21.60
2009,05,29,11,15,21.50
2009,05,29,11,16,21.40
2009,05,29,11,17,21.30
2009,05,29,11,18,21.30
2009,05,29,11,19,21.20
2009,05,29,11,20,21.10
2009,05,29,11,21,21.10
2009,05,29,11,22,21.10
2009,05,29,11,23,21.20
2009,05,29,11,24,21.30
2009,05,29,11,25,21.20
2009,05,29,11,26,21.30
2009,05,29,11,27,21.30
2009,05,29,11,28,21.30
2009,05,29,11,29,21.30
2009,05,29,11,30,21.30
2009,05,29,11,31,21.30
2009,05,29,11,32,21.40
2009,05,29,11,33,21.60
2009,05,29,11,34,21.70
2009,05,29,11,35,21.60
2009,05,29,11,36,21.60
2009,05,29,11,37,21.40
2009,05,29,11,38,21.20
2009,05,29,11,39,21.10
2009,05,29,11,40,21.00
2009,05,29,11,41,21.00
2009,05,29,11,42,21.00
2009,05,29,11,43,21.00
2009,05,29,11,44,21.10
2009,05,29,11,45,21.20
2009,05,29,11,46,21.30
2009,05,29,11,47,21.40
2009,05,29,11,48,21.60
2009,05,29,11,49,21.80
2009,05,29,11,50,22.00
2009,05,29,11,51,22.00
2009,05,29,11,52,21.90
2009,05,29,11,53,21.90
2009,05,29,11,54,21.90
2009,05,29,11,55,21.80
2009,05,29,11,56,21.80
2009,05,29,11,57,21.70
2009,05,29,11,58,21.70
2009,05,29,11,59,21.80
2009,05,29,12,00,21.80
2009,05,29,12,01,21.70
2009,05,29,12,02,21.60
2009,05,29,12,03,21.70
2009,05,29,12,04,21.70
2009,05,29,12,05,21.70
2009,05,29,12,06,21.70
2009,05,29,12,07,21.80
2009,05,29,12,08,21.90
2009,05,29,12,09,21.90
2009,05,29,12,10,21.90
2009,05,29,12,11,22.00
2009,05,29,12,12,22.00
2009,05,29,12,13,22.20
2009,05,29,12,14,22.30
2009,05,29,12,15,22.40
2009,05,29,12,16,22.50
2009,05,29,12,17,22.60
2009,05,29,12,18,22.70
2009,05,29,12,19,22.70
2009,05,29,12,20,22.60
2009,05,29,12,21,22.60
2009,05,29,12,22,22.60
2009,05,29,12,23,22.50
2009,05,29,12,24,22.30
2009,05,29,12,25,22.20
2009,05,29,12,26,22.20
2009,05,29,12,27,22.30
2009,05,29,12,28,22.30
2009,05,29,12,29,22.30
2009,05,29,12,30,22.20
2009,05,29,12,31,22.30
2009,05,29,12,32,22.30
2009,05,29,12,33,22.20
2009,05,29,12,34,22.20
2009,05,29,12,35,22.20
2009,05,29,12,36,22.20
2009,05,29,12,37,22.10
2009,05,29,12,38,22.10
2009,05,29,12,39,22.30
2009,05,29,12,40,22.40
2009,05,29,12,41,22.40
2009,05,29,12,42,22.30
2009,05,29,12,43,22.30
2009,05,29,12,44,22.40
2009,05,29,12,45,22.40
2009,05,29,12,46,22.50
2009,05,29,12,47,22.60
2009,05,29,12,48,22.80
2009,05,29,12,49,22.90
2009,05,29,12,50,22.90
2009,05,29,12,51,22.90
2009,05,29,12,52,23.00
2009,05,29,12,53,23.10
2009,05,29,12,54,23.10
2009,05,29,12,55,23.10
2009,05,29,12,56,23.10
2009,05,29,12,57,23.10
2009,05,29,12,58,23.00
2009,05,29,12,59,22.90
2009,05,29,13,00,22.80
2009,05,29,13,01,22.70
2009,05,29,13,02,22.70
2009,05,29,13,03,22.70
2009,05,29,13,04,22.70
2009,05,29,13,05,22.60
2009,05,29,13,06,22.50
2009,05,29,13,07,22.50
2009,05,29,13,08,22.60
2009,05,29,13,09,22.60
2009,05,29,13,10,22.50
2009,05,29,13,11,22.40
2009,05,29,13,12,22.40
2009,05,29,13,13,22.30
2009,05,29,13,14,22.30
2009,05,29,13,15,22.30
2009,05,29,13,16,22.20
2009,05,29,13,17,22.10
2009,05,29,13,18,21.90
2009,05,29,13,19,21.80
2009,05,29,13,20,21.80
2009,05,29,13,21,21.80
2009,05,29,13,22,21.70
2009,05,29,13,23,21.70
2009,05,29,13,24,21.70
2009,05,29,13,25,21.80
2009,05,29,13,26,21.90
2009,05,29,13,27,22.00
2009,05,29,13,28,22.10
2009,05,29,13,29,22.10
2009,05,29,13,30,22.10
2009,05,29,13,31,22.20
2009,05,29,13,32,22.20
2009,05,29,13,33,22.30
2009,05,29,13,34,22.40
2009,05,29,13,35,22.40
2009,05,29,13,36,22.50
2009,05,29,13,37,22.60
2009,05,29,13,38,22.60
2009,05,29,13,39,22.70
2009,05,29,13,40,22.80
2009,05,29,13,41,22.90
2009,05,29,13,42,22.90
2009,05,29,13,43,23.00
2009,05,29,13,44,22.90
2009,05,29,13,45,22.90
2009,05,29,13,46,23.00
2009,05,29,13,47,23.10
2009,05,29,13,48,22.90
2009,05,29,13,49,22.80
2009,05,29,13,50,22.70
2009,05,29,13,51,22.50
2009,05,29,13,52,22.10
2009,05,29,13,53,21.60
2009,05,29,13,54,21.20
2009,05,29,13,55,20.90
2009,05,29,13,56,20.70
2009,05,29,13,57,20.60
2009,05,29,13,58,20.60
2009,05,29,13,59,20.50
2009,05,29,14,00,20.50
2009,05,29,14,01,20.50
2009,05,29,14,02,20.50
2009,05,29,14,03,20.40
2009,05,29,14,04,20.50
2009,05,29,14,05,20.40
2009,05,29,14,06,20.40
2009,05,29,14,07,20.40
2009,05,29,14,08,20.20
2009,05,29,14,09,20.20
2009,05,29,14,10,20.20
2009,05,29,14,11,20.20
2009,05,29,14,12,20.30
2009,05,29,14,13,20.40
2009,05,29,14,14,20.50
2009,05,29,14,15,20.50
2009,05,29,14,16,20.20
2009,05,29,14,17,20.00
2009,05,29,14,18,19.90
2009,05,29,14,19,19.90
2009,05,29,14,20,20.10
2009,05,29,14,21,20.20
2009,05,29,14,22,20.20
2009,05,29,14,23,20.30
2009,05,29,14,24,20.40
2009,05,29,14,25,20.50
2009,05,29,14,26,20.50
2009,05,29,14,27,20.50
2009,05,29,14,28,20.60
2009,05,29,14,29,20.70
2009,05,29,14,30,20.70
2009,05,29,14,31,20.90
2009,05,29,14,32,21.00
2009,05,29,14,33,21.20
2009,05,29,14,34,21.30
2009,05,29,14,35,21.30
2009,05,29,14,36,21.10
2009,05,29,14,37,21.00
2009,05,29,14,38,20.90
2009,05,29,14,39,21.00
2009,05,29,14,40,21.10
2009,05,29,14,41,21.10
2009,05,29,14,42,21.10
2009,05,29,14,43,21.20
2009,05,29,14,44,21.20
2009,05,29,14,45,21.30
2009,05,29,14,46,21.30
2009,05,29,14,47,21.40
2009,05,29,14,48,21.50
2009,05,29,14,49,21.60
2009,05,29,14,50,21.70
2009,05,29,14,51,21.80
2009,05,29,14,52,21.80
2009,05,29,14,53,21.90
2009,05,29,14,54,21.90
2009,05,29,14,55,22.00
2009,05,29,14,56,22.00
2009,05,29,14,57,22.00
2009,05,29,14,58,22.00
2009,05,29,14,59,22.10
2009,05,29,15,00,22.20
2009,05,29,15,01,22.30
2009,05,29,15,02,22.40
2009,05,29,15,03,22.50
2009,05,29,15,04,22.70
2009,05,29,15,05,22.90
2009,05,29,15,06,23.00
2009,05,29,15,07,23.10
2009,05,29,15,08,23.30
2009,05,29,15,09,23.30
2009,05,29,15,10,23.40
2009,05,29,15,11,23.50
2009,05,29,15,12,23.70
2009,05,29,15,13,23.70
2009,05,29,15,14,23.80
2009,05,29,15,15,24.00
2009,05,29,15,16,24.10
2009,05,29,15,17,24.20
2009,05,29,15,18,24.30
2009,05,29,15,19,24.50
2009,05,29,15,20,24.50
2009,05,29,15,21,24.50
2009,05,29,15,22,24.50
2009,05,29,15,23,24.40
2009,05,29,15,24,24.40
2009,05,29,15,25,24.40
2009,05,29,15,26,24.50
2009,05,29,15,27,24.60
2009,05,29,15,28,24.80
2009,05,29,15,29,24.90
2009,05,29,15,30,25.20
2009,05,29,15,31,25.50
2009,05,29,15,32,25.70
2009,05,29,15,33,25.90
2009,05,29,15,34,26.30
2009,05,29,15,35,26.50
2009,05,29,15,36,26.60
2009,05,29,15,37,26.70
2009,05,29,15,38,26.80
2009,05,29,15,39,26.80
2009,05,29,15,40,26.80
2009,05,29,15,41,26.80
2009,05,29,15,42,26.80
2009,05,29,15,43,26.80
2009,05,29,15,44,26.80
2009,05,29,15,45,26.80
2009,05,29,15,46,26.80
2009,05,29,15,47,26.80
2009,05,29,15,48,26.80
2009,05,29,15,49,26.70
2009,05,29,15,50,26.60
2009,05,29,15,51,26.60
2009,05,29,15,52,26.60
2009,05,29,15,53,26.70
2009,05,29,15,54,26.80
2009,05,29,15,55,26.80
2009,05,29,15,56,26.90
2009,05,29,15,57,26.90
2009,05,29,15,58,26.90
2009,05,29,15,59,26.80
2009,05,29,16,00,26.80
2009,05,29,16,01,26.80
2009,05,29,16,02,26.70
2009,05,29,16,03,26.60
2009,05,29,16,04,26.60
2009,05,29,16,05,26.60
2009,05,29,16,06,26.60
2009,05,29,16,07,26.60
2009,05,29,16,08,26.60
2009,05,29,16,09,26.60
2009,05,29,16,10,26.60
2009,05,29,16,11,26.60
2009,05,29,16,12,26.70
2009,05,29,16,13,26.70
2009,05,29,16,14,26.70
2009,05,29,16,15,26.70
2009,05,29,16,16,26.70
2009,05,29,16,17,26.60
2009,05,29,16,18,26.60
2009,05,29,16,19,26.60
2009,05,29,16,20,26.60
2009,05,29,16,21,26.60
2009,05,29,16,22,26.60
2009,05,29,16,23,26.50
2009,05,29,16,24,26.40
2009,05,29,16,25,26.40
2009,05,29,16,26,26.40
2009,05,29,16,27,26.40
2009,05,29,16,28,26.60
2009,05,29,16,29,26.60
2009,05,29,16,30,26.60
2009,05,29,16,31,26.60
2009,05,29,16,32,26.60
2009,05,29,16,33,26.60
2009,05,29,16,34,26.60
2009,05,29,16,35,26.60
2009,05,29,16,36,26.60
2009,05,29,16,37,26.60
2009,05,29,16,38,26.60
2009,05,29,16,39,26.60
2009,05,29,16,40,26.60
2009,05,29,16,41,26.60
2009,05,29,16,42,26.60
2009,05,29,16,43,26.60
2009,05,29,16,44,26.60
2009,05,29,16,45,26.60
2009,05,29,16,46,26.60
2009,05,29,16,47,26.60
2009,05,29,16,48,26.60
2009,05,29,16,49,26.60
2009,05,29,16,50,26.60
2009,05,29,16,51,26.60
2009,05,29,16,52,26.60
2009,05,29,16,53,26.60
2009,05,29,16,54,26.60
2009,05,29,16,55,26.60
2009,05,29,16,56,26.60
2009,05,29,16,57,26.60
2009,05,29,16,58,26.60
2009,05,29,16,59,26.80
2009,05,29,17,00,26.80
2009,05,29,17,01,26.90
2009,05,29,17,02,27.00
2009,05,29,17,03,27.10
2009,05,29,17,04,27.10
2009,05,29,17,05,27.10
2009,05,29,17,06,27.10
2009,05,29,17,07,27.00
2009,05,29,17,08,26.90
2009,05,29,17,09,26.80
2009,05,29,17,10,26.70
2009,05,29,17,11,26.60
2009,05,29,17,12,26.60
2009,05,29,17,13,26.50
2009,05,29,17,14,26.30
2009,05,29,17,15,26.30
2009,05,29,17,16,26.20
2009,05,29,17,17,26.20
2009,05,29,17,18,26.20
2009,05,29,17,19,26.20